Location: Helsinki
(60.1699°N, 24.9384°E)
Time: 17:37:04
(UTC+02:00)

S-56A Canister/Altair - Pass Details

Date: 29 October 2020
Orbit: 633 x 2500 km, 38.9° (Epoch: 29 November)

Event Time Altitude Azimuth Distance (km) Brightness Sun altitude
Rises 08:38:56 0° 236° (SW) 3,828 10.9 5.6°
Reaches altitude 10° 08:42:25 10° 216° (SW) 3,171 10.8 6.0°
Maximum altitude 08:47:13 17° 179° (S) 3,050 11.3 6.4°
Drops below altitude 10° 08:53:07 10° 144° (SE) 4,051 13.5 6.9°
Sets 08:58:32 0° 128° (SE) 5,428 14.2 7.4°
